Location: Rowland
(34.5359°N, 79.2929°W)
Time: 20:06:15
(UTC+00:00)

Transit 2A - Pass Details

Date: 07 October 2022
Orbit: 598 x 959 km, 66.7° (Epoch: 03 December)

Event Time Altitude Azimuth Distance (km) Brightness Sun altitude
Rises 03:15:20 0° 221° (SW) 2,951 - -51.4°
Reaches altitude 10° 03:17:45 10° 228° (SW) 2,004 - -51.8°
Maximum altitude 03:22:01 43° 300° (WNW) 859 - -52.4°
Drops below altitude 10° 03:26:08 10° 12° (NNE) 1,940 - -53.0°
Sets 03:28:27 0° 20° (NNE) 2,846 - -53.3°
